Theta_e
313 314 317 318 321 326 329 326 323 324 325 323 322 320 317 316 317 317 316 318 317 312 315 317 315 315 317 322 320 313 313 314 313 314 314 316 318 318 320 321 321 321 321 321 320 320 320 320 321 320 318 318 318 318 316 314 312 311 310 308 307 308 310 312 312 312 313 313 312 312 312 311 309 307 308 309 309 311 312 311 311 312 315 317 314 310
313 314 319 323 326 329 332 334 330 325 326 324 322 318 316 318 316 316 320 321 321 318 318 320 318 318 322 325 321 315 315 316 312 313 313 314 316 316 319 320 321 321 321 320 320 319 320 320 320 319 318 318 319 318 316 314 312 311 310 309 308 309 312 314 313 313 313 312 312 312 311 311 310 307 306 307 306 306 306 306 306 306 308 310 308 306
316 316 321 324 325 326 328 333 331 325 327 326 323 319 318 320 317 320 329 326 326 325 321 322 321 323 329 328 321 316 315 316 314 314 314 314 316 316 317 320 321 321 320 320 319 320 319 319 319 319 318 319 319 319 317 315 313 312 311 309 308 310 313 315 315 315 313 312 312 311 310 310 310 309 308 308 308 307 306 305 304 304 303 304 303 303
318 320 320 319 322 327 325 326 331 330 328 326 321 319 320 320 317 320 327 328 329 325 319 322 323 328 333 327 323 318 313 315 315 315 316 315 315 316 317 319 321 320 320 320 320 320 320 319 319 318 319 319 319 318 318 316 314 312 312 310 309 310 313 314 315 315 313 312 312 311 309 309 310 310 309 308 308 308 307 307 305 304 303 303 303 303
318 320 318 318 324 329 323 322 333 330 324 329 326 318 319 321 319 318 321 328 333 329 325 323 324 336 339 326 322 320 314 315 315 315 315 315 315 316 316 317 319 321 320 321 321 320 320 319 319 319 318 319 319 318 318 317 315 314 313 312 309 309 311 312 313 314 314 312 311 311 309 310 310 310 309 309 309 308 308 307 307 306 304 303 303 304
317 315 317 322 325 326 322 322 332 330 323 329 332 326 323 322 322 321 322 327 327 325 328 321 319 337 342 327 322 322 318 317 315 314 315 314 315 315 316 317 318 320 320 320 320 320 320 319 319 319 319 319 319 318 319 318 317 316 314 314 311 309 310 310 312 314 314 312 310 310 310 310 310 310 310 310 309 308 308 307 307 307 306 304 303 304
318 316 319 324 324 322 323 320 325 330 323 321 330 333 327 324 323 322 321 323 321 320 326 322 317 330 334 326 324 323 321 321 317 316 315 313 315 315 316 317 317 318 318 319 321 320 320 319 319 319 319 319 319 319 319 318 318 317 315 314 313 311 310 310 311 313 313 312 310 310 310 310 310 310 311 311 309 309 308 308 307 307 307 306 305 304
319 318 319 322 322 320 322 320 323 330 324 321 332 332 323 321 321 323 321 320 322 320 324 327 319 320 324 323 323 320 318 321 321 319 317 313 313 315 316 317 317 317 317 318 320 320 320 320 319 320 319 319 319 319 319 319 318 318 316 315 315 314 312 311 311 311 311 311 311 311 311 311 311 311 311 311 311 310 308 308 308 308 308 307 306 306
320 320 321 323 321 318 322 328 329 327 320 325 336 328 320 320 321 326 324 320 323 317 321 331 323 317 324 327 323 318 316 319 319 320 320 314 313 315 315 317 317 317 317 317 319 319 319 319 319 319 319 319 319 319 319 320 319 318 317 316 316 315 314 312 312 312 312 311 312 312 312 312 312 312 312 312 312 311 310 309 308 308 308 307 307 306
318 319 322 323 321 321 327 329 328 324 319 325 331 321 319 323 322 325 321 319 325 319 317 328 323 316 323 326 321 317 316 319 321 321 319 314 313 315 315 316 317 316 317 317 318 319 319 319 319 319 319 319 319 320 319 320 319 318 318 317 317 316 314 313 312 313 313 312 313 313 312 312 312 313 313 312 312 312 311 309 309 308 308 308 307 307
314 313 317 319 318 322 326 321 319 320 319 320 320 316 320 325 326 328 326 322 324 321 317 320 321 318 317 322 322 319 318 320 320 320 318 314 313 315 316 315 316 316 316 316 316 318 319 319 319 318 319 319 319 320 320 320 319 318 318 318 317 316 315 314 313 314 314 314 314 313 313 312 312 313 313 312 312 312 311 310 309 308 308 308 308 307
316 312 315 317 315 317 317 316 314 313 316 318 318 317 319 322 327 331 328 321 318 320 321 317 318 318 315 319 322 319 319 318 316 318 320 317 313 314 315 315 315 316 316 316 315 317 318 319 319 319 319 319 319 320 320 320 319 319 319 319 318 317 316 315 314 314 315 316 315 315 314 313 313 313 313 313 313 313 312 310 309 308 308 308 308 307
319 316 314 314 315 314 313 315 314 312 316 317 318 319 318 317 321 325 323 321 318 319 321 318 316 318 316 317 317 317 319 317 315 316 318 317 314 314 316 315 316 316 316 316 315 316 318 318 319 320 319 320 320 320 320 320 319 319 320 319 319 318 317 317 316 315 316 317 316 316 314 313 313 314 314 313 313 313 312 311 310 309 308 308 308 307
320 320 318 313 314 315 314 315 315 315 316 314 315 319 320 316 315 318 320 318 316 319 325 322 317 319 320 320 321 321 319 316 314 313 314 314 314 315 316 315 316 316 316 316 316 315 317 318 319 319 320 320 320 319 319 319 319 319 319 320 319 319 318 317 316 316 317 318 317 316 315 314 313 313 313 314 313 313 312 310 310 309 308 308 307 307
316 321 322 316 315 315 313 313 315 319 318 316 316 315 318 321 319 318 318 316 316 319 325 321 317 324 325 323 324 319 314 314 313 314 314 313 314 316 315 315 315 316 316 316 316 316 316 317 318 318 319 319 319 319 318 318 319 319 319 320 319 319 319 318 317 316 316 318 317 316 315 314 314 313 313 314 313 314 313 311 310 310 309 308 307 307
312 316 321 316 313 313 311 312 312 314 316 316 315 312 314 320 322 319 317 320 322 321 322 319 321 328 323 320 322 315 311 314 312 314 314 312 315 315 314 314 313 315 316 315 316 316 316 317 317 318 318 318 318 318 319 319 319 319 319 319 319 319 319 318 318 317 316 317 317 316 315 315 313 313 314 313 314 314 313 311 310 310 309 308 307 306
312 318 320 313 311 312 310 312 310 309 316 319 315 313 314 315 315 316 318 321 320 318 320 318 320 326 320 316 320 315 314 316 313 313 313 312 315 313 313 315 313 314 315 316 317 316 317 317 317 318 318 318 319 319 319 319 319 319 319 319 319 319 319 318 318 317 315 316 316 316 316 315 314 314 313 313 314 314 313 311 310 310 309 308 307 306
320 324 322 313 312 312 310 312 312 309 314 318 315 315 319 318 317 320 321 320 317 317 321 319 318 323 320 316 320 317 315 317 316 315 312 312 314 313 314 314 314 314 314 315 316 316 318 318 317 318 318 318 319 319 320 320 319 319 319 319 319 319 319 318 318 318 316 315 314 314 314 314 313 313 312 312 312 313 313 311 310 309 309 309 307 305
320 323 322 316 311 311 312 313 315 314 311 311 313 314 318 322 321 319 318 317 316 315 320 322 318 319 319 317 317 315 315 318 318 315 314 313 313 313 313 313 312 313 313 314 314 315 317 318 318 318 317 318 319 319 320 320 319 320 319 319 319 318 318 318 318 319 316 315 313 312 312 312 313 313 311 311 311 312 312 311 310 309 309 309 307 305
321 320 321 320 313 311 317 317 316 317 312 310 312 311 315 320 319 315 315 316 317 316 319 322 317 318 322 321 316 314 315 317 317 317 316 313 312 311 311 310 310 310 310 312 312 313 315 316 318 319 319 319 319 319 320 319 319 320 319 319 319 318 319 318 318 318 317 315 313 312 311 311 313 313 311 310 310 310 311 310 310 309 309 309 307 305
320 316 321 326 317 313 318 317 313 314 312 312 313 313 315 317 315 314 314 314 316 319 322 320 317 321 325 322 318 315 314 315 317 317 315 311 310 310 309 309 310 309 309 309 310 312 312 313 315 318 319 320 320 320 320 320 319 319 319 319 319 319 319 318 318 318 317 315 313 311 310 311 312 312 310 310 310 310 310 310 310 310 309 308 307 305
318 318 323 325 318 315 318 315 311 311 311 311 312 312 313 314 312 312 314 317 318 320 322 319 317 323 323 319 319 318 315 315 314 313 312 310 308 309 309 309 309 309 309 309 308 309 309 310 312 314 317 319 320 321 320 321 320 320 320 319 319 319 319 318 318 317 317 316 313 311 310 310 312 311 310 310 310 310 310 310 310 309 309 308 306 305
319 321 321 319 317 315 314 312 310 309 311 311 311 312 312 312 312 309 313 320 319 316 319 318 317 321 321 319 320 317 314 312 309 309 310 309 309 309 309 309 309 308 308 308 308 308 307 308 310 311 313 315 318 320 320 320 320 320 321 320 319 319 318 318 317 316 316 316 313 311 310 310 312 312 310 310 310 310 309 309 309 309 308 307 305 305
318 320 318 318 320 318 315 315 314 312 313 311 312 314 311 309 310 309 312 316 314 315 318 315 316 323 323 318 315 311 309 309 308 309 309 308 309 309 308 308 308 308 308 307 308 308 308 309 310 310 313 313 314 317 319 320 320 320 320 320 320 320 319 318 316 315 317 316 313 311 310 310 312 312 310 310 311 310 310 309 309 309 308 306 306 306
315 319 318 316 318 318 317 318 318 320 318 312 310 312 309 307 308 312 316 316 314 318 318 315 321 330 324 314 311 309 309 309 308 308 308 309 309 308 308 308 308 307 308 308 308 308 309 310 310 310 312 314 314 314 316 318 320 319 319 319 320 321 322 321 319 317 316 315 313 311 310 311 312 312 311 310 311 310 309 309 309 308 308 307 306 306
315 320 319 315 315 315 315 316 317 318 315 310 308 308 307 306 307 311 314 313 314 318 316 315 321 323 317 313 312 312 311 310 308 307 308 308 308 308 308 308 308 308 308 309 309 309 309 310 311 311 311 313 314 314 314 316 318 319 318 318 318 319 321 322 322 321 319 316 313 312 312 312 312 312 310 310 310 310 309 309 309 308 308 307 306 305
316 316 318 319 316 313 314 317 316 311 309 309 308 307 306 307 311 313 310 310 317 318 313 315 317 314 313 313 311 310 312 314 311 307 307 308 308 309 309 309 309 309 309 309 309 309 309 310 310 311 310 311 312 314 314 314 316 318 318 318 318 318 318 319 321 322 322 320 316 314 314 313 312 311 311 310 310 310 309 309 308 309 308 307 305 304
314 311 315 318 314 312 312 313 311 308 307 307 307 306 307 308 310 311 309 312 316 312 310 316 316 311 311 311 309 310 313 314 311 306 306 309 309 309 309 309 309 309 309 309 309 309 309 309 309 310 310 310 311 312 313 315 316 316 316 317 317 317 318 318 320 321 321 320 320 319 318 316 314 312 311 310 310 310 310 309 309 309 308 306 305 304
311 310 314 314 311 311 310 308 308 307 306 306 306 307 308 308 308 308 308 312 313 309 309 313 311 309 311 310 308 308 308 308 308 306 307 309 309 309 309 308 309 309 309 309 309 309 309 309 309 309 309 309 310 310 311 313 315 316 317 316 316 316 317 318 319 320 320 320 320 321 321 319 317 313 311 311 311 310 310 310 309 309 307 305 304 304
309 313 316 311 308 309 307 307 308 306 306 307 307 307 307 308 310 309 309 312 311 310 312 311 308 310 311 308 307 306 306 307 307 308 309 308 308 308 308 308 309 309 309 309 309 309 308 309 309 308 308 308 309 309 310 310 312 314 316 317 317 317 317 318 320 321 321 321 319 320 321 320 318 314 312 312 311 311 311 310 309 308 307 305 305 305
307 314 317 309 307 310 308 307 308 306 307 307 306 306 307 308 310 309 308 310 308 308 311 308 307 312 310 305 305 307 307 309 308 308 308 308 308 308 308 309 309 309 309 309 308 308 308 308 308 308 308 308 307 308 309 310 311 312 314 315 318 319 319 319 321 322 321 321 320 319 319 319 317 314 313 313 312 312 311 310 309 307 306 305 305 305
307 312 314 308 307 312 310 307 308 307 307 306 305 306 306 307 310 308 308 308 306 306 307 306 309 315 310 305 306 308 307 308 308 308 308 308 308 308 308 309 308 308 308 308 308 308 308 307 308 307 307 307 307 306 307 309 311 312 312 313 316 319 321 321 321 322 321 320 319 317 317 317 316 314 314 313 313 312 311 310 309 307 305 305 305 305
309 309 311 309 308 311 310 306 309 309 307 307 310 312 310 307 308 307 308 308 307 306 308 310 314 314 308 307 310 310 306 306 307 307 308 308 308 308 308 308 307 307 307 307 307 307 307 307 307 306 306 306 306 305 305 307 309 311 312 313 313 317 320 321 321 320 320 319 318 317 317 318 317 314 313 314 313 312 311 309 307 305 305 305 306 306
309 306 309 309 307 310 310 307 308 309 307 309 316 318 312 308 307 307 307 308 308 308 311 313 313 310 307 308 310 309 307 307 306 306 307 307 307 307 307 307 307 307 307 307 307 307 306 307 306 305 304 304 304 304 304 305 307 309 311 312 313 315 317 319 319 319 318 318 318 318 318 318 315 313 314 314 313 312 310 307 305 304 305 306 306 305
307 307 309 309 307 310 310 306 306 307 306 307 312 313 310 310 311 309 308 308 308 310 312 312 310 309 308 307 306 306 306 305 303 305 308 308 307 307 306 305 305 305 306 306 306 306 306 306 305 305 304 303 303 304 303 304 305 307 310 312 313 314 316 317 318 318 318 318 318 319 318 316 314 314 314 313 312 310 307 304 304 305 306 305 305 305
306 306 307 308 308 308 307 306 306 306 305 306 309 309 308 309 311 309 307 307 307 310 312 311 310 308 306 305 306 306 305 303 302 304 307 306 305 304 304 303 303 303 304 305 305 305 305 305 305 304 304 303 303 303 303 303 304 306 308 312 314 315 316 317 318 318 318 318 318 317 316 314 314 313 313 312 311 307 303 303 305 305 305 305 305 305
304 306 306 307 307 306 306 308 308 306 305 305 307 307 307 309 311 311 309 308 306 307 309 309 309 308 305 304 305 305 304 303 302 303 304 304 303 302 302 302 302 302 303 304 305 305 305 305 305 304 304 303 303 303 304 303 304 306 307 311 315 316 316 317 317 317 316 316 316 314 313 313 313 312 312 311 307 304 303 305 305 305 305 305 305 304
303 305 305 306 306 306 306 307 306 306 306 306 308 309 307 306 308 309 308 307 305 305 305 306 307 307 305 304 305 305 304 304 303 303 303 303 302 303 303 302 302 302 303 304 305 305 305 305 304 304 303 303 303 304 304 304 305 308 308 310 313 316 317 316 316 316 316 316 314 312 312 313 311 310 310 308 305 303 303 305 305 305 305 305 304 302
305 306 305 305 306 306 306 305 305 305 306 307 308 308 305 304 304 305 307 308 305 302 302 304 305 305 304 304 305 305 305 306 304 303 302 303 303 303 303 303 303 303 303 304 305 305 304 304 302 302 302 303 303 304 305 305 307 309 309 309 311 315 316 316 316 315 315 315 314 313 312 311 310 310 309 306 302 302 304 305 305 305 304 302 300 298
308 308 306 305 307 308 308 307 306 305 305 306 307 306 304 304 304 305 308 309 305 301 301 303 304 304 305 305 305 306 307 306 305 303 302 303 303 302 303 304 304 304 304 304 304 305 304 302 301 301 303 304 304 305 306 307 308 309 310 310 311 314 315 316 315 314 314 313 313 312 311 309 309 309 307 303 302 304 305 304 303 301 300 298 297 297
305 307 307 307 306 307 307 306 306 305 305 306 306 304 303 304 305 306 307 308 304 301 301 303 304 304 304 305 305 306 306 304 303 303 302 302 302 302 302 303 304 305 305 304 304 304 303 301 301 302 303 304 305 306 307 308 308 309 311 311 312 314 315 315 315 314 313 313 312 311 309 309 308 306 304 303 303 303 302 300 298 298 297 297 297 297
302 304 306 307 306 306 307 306 305 304 304 305 305 303 302 304 306 307 307 304 301 301 303 303 303 303 303 304 304 304 304 302 302 302 302 303 303 302 302 303 305 305 304 304 304 303 302 301 301 303 304 305 306 307 307 308 308 309 311 311 312 314 314 314 314 313 311 310 310 309 308 307 305 302 301 301 301 299 298 298 297 297 298 298 297 297
301 302 304 304 304 304 305 304 303 303 303 302 302 302 303 304 305 305 303 301 302 302 302 302 302 302 302 303 303 303 302 302 302 302 302 302 303 303 303 304 304 304 304 304 303 302 301 301 302 303 304 305 306 306 307 308 309 310 311 311 312 313 312 311 311 310 309 309 308 307 305 303 301 299 299 299 298 298 298 298 298 298 298 297 297 298
300 301 302 303 302 302 303 303 302 302 302 301 301 302 303 302 302 301 301 302 303 303 303 303 303 302 302 302 302 302 302 302 302 302 302 302 303 303 304 304 304 304 303 302 301 301 301 301 303 304 304 305 305 306 307 308 309 310 311 312 312 311 311 310 310 309 308 307 305 303 301 300 299 299 299 298 298 298 298 298 298 298 298 298 297 297
301 301 301 302 302 301 301 302 301 300 299 300 300 301 300 300 301 301 302 303 303 303 304 303 303 302 302 302 302 302 303 303 303 303 303 303 303 304 303 303 303 303 302 301 302 303 303 303 303 304 305 305 306 306 307 308 309 310 310 311 311 309 309 309 309 307 306 303 302 301 300 300 299 299 299 298 299 298 298 298 298 298 298 297 297 297
299 299 298 300 302 301 299 300 299 298 298 299 299 299 300 300 300 300 301 301 301 302 302 302 301 301 301 301 303 303 303 303 304 304 304 304 304 303 303 303 302 301 301 302 303 304 304 304 304 304 305 305 305 305 306 307 308 309 309 308 307 307 307 308 307 306 303 301 301 301 300 299 299 299 299 298 298 298 298 298 298 298 298 297 297 296
298 298 297 298 300 300 300 300 299 297 298 298 298 299 300 299 300 299 300 300 300 300 301 301 301 301 300 301 301 302 302 303 303 304 304 304 303 303 302 302 302 301 301 303 304 304 304 304 304 305 305 304 304 305 305 306 307 308 307 306 305 306 306 306 306 304 302 301 300 300 299 299 299 299 299 298 298 298 298 298 298 298 297 297 296 296
298 298 298 299 299 298 299 299 297 297 298 298 298 299 299 299 299 299 299 299 300 300 300 300 301 301 301 301 301 301 302 303 303 303 304 303 303 303 302 302 301 301 302 303 304 304 304 305 305 304 304 304 304 304 304 306 305 305 304 304 304 305 305 304 303 302 300 299 299 299 299 299 299 299 299 298 298 298 298 298 298 298 297 297 296 295
297 298 299 300 299 298 298 298 297 298 298 298 298 299 298 299 299 299 299 299 299 299 299 300 300 301 300 301 301 302 302 303 303 303 303 303 303 303 302 301 301 302 302 303 303 304 304 304 304 303 304 304 304 303 303 304 304 303 303 303 303 303 303 302 301 300 299 299 300 299 299 299 299 299 299 298 298 299 299 299 298 297 297 297 296 294
297 298 298 298 298 298 298 297 297 298 297 297 298 298 298 299 299 299 299 299 298 299 299 299 299 300 300 300 301 302 302 303 303 303 303 303 303 302 301 301 302 302 303 303 304 305 304 303 303 303 304 305 305 304 304 304 304 303 302 302 302 302 301 300 300 299 300 300 300 299 299 299 299 299 299 299 299 299 299 298 298 297 297 296 294 293
297 297 297 298 298 298 297 297 297 297 297 297 298 298 299 299 299 299 298 298 298 299 300 300 300 300 300 300 300 301 303 303 303 303 303 303 302 302 301 302 302 302 303 303 304 304 304 304 304 304 304 305 305 305 305 304 303 302 302 302 302 301 301 300 300 300 300 300 300 300 299 299 299 299 299 299 299 299 298 298 297 297 296 295 294 294
Wind_Speed
3 2 2 4 6 6 6 6 7 5 5 4 2 2 1 1 3 5 4 7 1 5 1 3 5 7 6 6 7 7 3 7 13 16 20 27 32 33 34 36 39 41 40 39 37 35 33 30 27 27 28 27 25 22 18 16 14 12 12 14 15 16 17 17 17 16 16 13 11 11 9 6 7 8 7 6 4 4 7 10 11 12 11 10 9 9
1 3 6 8 10 8 6 4 6 4 3 4 3 2 3 1 3 6 3 6 3 5 2 3 2 5 6 5 8 7 4 6 12 16 17 22 29 32 35 37 40 40 39 38 38 37 35 32 30 30 31 30 28 26 22 17 15 14 14 14 15 17 17 17 16 16 16 14 10 10 8 5 6 7 7 7 7 5 2 3 7 9 10 11 11 11
1 4 10 11 8 5 3 2 5 4 4 4 2 1 4 2 2 6 5 7 5 5 2 2 3 5 7 5 7 6 6 9 14 19 21 21 26 30 33 36 38 37 36 37 39 39 37 35 34 34 33 32 31 28 23 19 17 16 16 16 16 17 18 17 16 16 16 14 11 8 6 5 5 6 5 7 8 9 9 6 3 1 5 9 10 11
2 7 12 10 5 6 3 1 5 4 2 3 3 2 3 3 1 2 5 7 5 2 2 1 3 4 6 6 5 8 10 10 14 19 22 21 23 30 34 37 39 36 34 37 39 40 39 37 36 36 35 34 32 28 24 21 19 17 17 18 17 18 18 16 15 16 17 16 12 9 7 6 5 6 5 5 8 9 10 10 9 6 2 3 7 9
6 10 9 3 6 8 5 2 5 4 2 2 2 3 3 4 2 4 4 4 6 5 1 4 4 5 4 5 6 7 6 6 12 17 22 24 22 26 31 33 37 37 36 38 41 41 41 40 39 38 37 36 34 31 27 24 21 18 17 18 19 18 18 16 14 16 18 17 15 13 11 8 7 7 5 3 6 8 10 11 11 10 8 4 1 5
9 14 8 3 6 8 6 4 3 5 1 4 3 6 7 6 6 4 0 3 5 5 3 2 2 5 4 3 6 6 4 4 8 10 20 28 23 21 25 29 33 36 37 40 43 44 44 42 41 40 39 38 36 33 30 26 21 18 18 19 20 20 19 17 15 18 19 17 15 14 12 10 8 8 6 3 4 5 8 9 10 11 10 8 5 2
5 8 5 5 7 6 5 3 4 5 4 2 5 6 6 5 5 3 3 3 2 3 4 2 3 5 6 4 7 6 4 7 7 6 16 25 21 21 27 32 34 33 34 38 43 45 45 44 43 42 41 40 39 36 32 27 22 19 19 19 21 21 19 17 17 19 20 18 15 13 11 9 7 7 6 3 2 2 5 7 8 9 9 10 9 7
3 2 2 4 4 4 4 2 4 5 7 3 6 5 4 4 4 4 5 5 4 3 4 4 3 3 4 5 7 5 4 8 8 7 12 18 21 25 29 34 35 32 31 35 41 45 45 44 43 43 43 42 40 37 33 29 24 22 21 20 21 22 20 18 17 18 19 18 16 13 12 11 9 7 5 5 4 1 1 3 5 7 8 9 9 9
2 2 4 5 4 3 3 6 6 6 5 6 6 4 5 4 4 2 5 3 2 1 5 5 1 1 5 6 5 2 3 7 9 9 10 14 21 27 30 33 34 33 31 31 37 43 45 45 43 42 43 43 41 39 35 31 27 24 22 21 22 22 20 17 17 18 18 17 16 14 13 12 10 8 7 7 6 4 3 1 2 4 6 7 8 8
3 7 8 6 5 5 6 6 6 7 4 6 4 3 1 2 2 2 5 3 3 3 4 7 1 0 4 6 5 2 2 6 8 9 9 15 22 29 33 34 33 31 30 30 33 40 43 43 42 41 41 42 42 39 35 31 28 26 24 23 23 23 21 17 16 18 18 18 16 15 14 12 11 11 11 11 8 7 6 3 1 0 3 5 6 6
6 8 8 4 5 7 6 6 6 8 7 3 2 2 3 5 4 3 3 4 4 2 6 6 3 2 3 6 5 3 4 5 6 8 8 11 20 29 34 35 34 33 31 29 30 35 40 42 42 42 42 42 41 39 36 33 30 27 26 26 25 24 21 17 16 18 18 18 18 17 16 14 13 12 13 13 11 10 9 6 4 2 1 3 3 4
5 3 4 4 7 8 5 4 4 4 3 2 3 2 2 4 4 5 4 4 3 4 6 3 3 5 1 5 5 5 7 7 6 9 8 7 16 27 31 33 35 36 35 32 29 30 36 41 44 44 44 42 41 41 38 35 32 29 29 28 26 25 22 18 17 18 19 19 18 18 17 15 14 14 14 13 12 11 9 8 7 5 4 3 2 2
4 3 3 3 7 8 5 2 3 4 4 5 4 4 3 2 4 4 4 2 1 6 6 3 3 3 4 8 9 7 9 10 7 9 10 11 19 27 30 32 36 38 37 36 32 29 32 38 43 44 44 44 43 41 39 36 33 32 31 31 29 27 23 19 18 20 21 20 19 19 18 16 15 15 14 13 12 11 10 9 9 8 6 4 3 2
4 6 4 3 3 4 6 3 2 3 2 5 4 3 4 2 2 2 3 1 2 5 6 3 3 2 4 6 7 7 10 12 10 14 13 13 17 24 29 31 33 35 35 35 35 33 32 34 38 40 42 43 43 41 39 38 36 35 34 33 32 29 25 21 20 21 22 22 20 19 18 17 16 15 14 14 13 12 11 11 11 9 7 6 5 4
1 5 3 2 3 3 5 5 6 4 2 4 5 5 4 4 3 3 3 2 4 4 5 3 1 2 2 4 6 6 10 10 9 16 12 3 5 15 24 25 26 29 29 30 32 33 34 35 35 37 38 40 40 40 40 39 38 37 37 35 33 31 28 24 22 22 23 23 21 20 19 17 16 15 14 14 14 14 13 13 13 11 9 8 7 6
4 5 6 4 3 2 1 3 3 5 1 3 2 5 2 4 5 3 3 5 4 1 3 2 1 4 4 6 8 6 9 8 10 17 16 13 14 10 2 4 10 19 24 27 29 29 33 35 36 36 37 38 38 39 41 41 40 39 38 37 34 32 29 27 25 23 23 24 23 22 20 19 17 16 16 16 16 16 16 16 15 13 11 10 9 8
3 5 6 3 1 5 5 6 1 3 2 2 1 2 3 3 6 2 2 1 3 1 4 1 2 5 3 5 8 8 10 10 11 13 15 19 27 28 24 22 15 5 7 19 25 27 30 34 36 37 37 37 39 41 42 41 41 40 39 38 36 33 31 29 27 25 24 24 24 23 22 20 18 17 16 16 17 18 18 17 17 15 13 12 11 10
4 2 6 2 2 2 5 7 4 1 3 2 1 4 3 3 4 2 1 2 2 2 4 1 3 4 2 3 6 9 9 8 8 8 12 18 25 26 26 28 28 25 16 2 11 19 27 32 35 36 37 38 38 39 41 41 41 41 40 38 36 35 34 32 29 27 25 25 24 24 23 22 20 17 15 15 16 18 18 18 18 17 15 14 13 12
4 1 7 2 1 3 6 7 4 6 6 5 1 3 1 1 1 0 1 0 1 2 3 3 3 3 2 3 2 7 7 7 7 8 11 14 19 22 25 29 30 30 28 20 13 5 13 25 33 35 36 38 39 39 40 41 42 42 41 39 37 35 33 32 31 29 28 26 25 24 23 23 21 17 15 15 15 16 17 18 18 18 16 15 14 14
3 3 4 4 1 1 5 4 0 5 5 4 2 3 1 2 4 3 2 3 3 3 3 3 4 2 4 5 3 3 3 5 7 8 9 10 16 21 24 29 31 30 29 27 24 18 11 7 21 32 34 35 37 40 42 42 43 43 42 41 39 37 34 32 32 32 30 28 26 24 24 24 22 18 16 16 15 16 16 17 17 17 16 16 16 14
3 3 3 5 4 2 2 0 4 2 2 3 4 4 4 2 0 0 1 2 4 3 3 2 3 4 5 4 6 7 3 5 7 7 6 9 17 21 23 26 28 28 29 29 27 25 23 19 10 16 28 33 34 36 40 43 43 42 43 43 40 38 37 34 33 33 32 30 28 26 25 25 23 20 18 16 16 16 16 16 16 16 17 17 16 15
2 2 2 2 3 2 4 4 3 5 4 2 1 2 3 3 1 1 3 3 1 3 4 4 4 6 5 4 6 7 5 4 7 8 7 10 16 18 20 24 25 26 27 27 27 27 25 23 19 12 13 24 31 33 35 39 42 43 44 43 41 39 38 36 34 34 33 32 30 28 26 26 25 21 19 17 16 16 16 16 16 16 17 17 16 15
3 3 3 1 3 4 7 7 2 2 2 4 2 2 1 0 2 1 4 4 2 1 2 2 2 6 6 4 5 5 6 7 10 11 9 11 15 16 18 21 23 25 27 26 24 25 25 24 20 15 11 11 21 29 33 36 39 42 43 42 42 42 40 38 35 35 35 35 33 30 28 27 26 23 20 19 17 16 16 16 16 17 17 17 16 14
1 3 2 2 3 4 6 6 5 6 4 2 1 1 3 3 2 2 4 3 2 3 1 2 3 6 5 1 5 7 8 9 10 11 11 12 14 16 18 20 22 24 25 25 24 24 23 24 20 15 11 9 11 19 29 36 39 41 41 40 41 42 41 41 39 36 36 37 36 33 30 29 27 25 22 20 18 17 17 16 17 17 17 17 16 14
1 0 2 2 4 5 6 6 6 6 4 2 2 2 2 3 2 0 1 1 0 4 3 4 4 5 4 3 3 6 7 7 6 8 9 9 11 14 16 18 19 21 22 22 23 22 20 20 20 17 12 10 11 13 19 30 38 40 39 40 42 41 39 39 40 40 39 38 38 37 34 31 29 27 23 21 19 17 17 17 16 17 16 16 15 13
2 1 3 2 2 3 2 2 3 3 3 2 3 2 1 2 2 2 2 2 1 4 1 3 4 6 7 6 7 7 5 3 3 6 7 8 11 14 16 16 16 16 17 18 19 19 19 19 20 20 18 12 11 14 16 21 31 40 41 42 44 44 43 40 39 41 41 40 40 39 37 33 31 29 25 21 19 18 17 16 16 15 15 14 13 12
3 1 2 5 6 6 5 6 5 2 3 4 6 8 4 3 4 3 2 1 4 2 3 4 5 6 10 7 6 6 7 5 6 9 11 13 16 17 17 17 17 16 14 14 14 16 17 18 20 20 21 19 12 9 14 18 25 33 40 43 43 45 47 45 42 41 40 40 41 41 39 36 32 29 25 21 19 17 16 15 14 13 13 12 12 11
3 2 2 5 6 7 8 8 5 3 5 7 8 12 8 2 5 2 3 5 4 2 4 7 5 4 9 6 3 5 7 6 6 9 13 16 18 19 18 18 18 17 15 14 14 15 17 17 18 19 19 20 18 13 10 14 21 26 32 38 41 43 47 48 46 43 41 41 42 42 41 37 33 29 24 21 18 16 15 14 12 12 12 12 11 10
4 3 4 4 5 7 7 8 7 6 7 7 8 10 8 3 3 6 7 6 6 4 7 8 5 5 7 6 5 6 6 5 7 11 15 18 19 19 19 18 18 17 17 18 17 17 17 17 18 18 18 18 19 18 16 14 16 21 27 32 36 41 46 49 49 47 45 44 43 42 40 37 32 26 22 20 17 15 14 12 12 12 11 10 10 10
3 3 4 4 4 5 5 7 8 7 7 8 9 8 5 5 7 6 6 6 6 7 9 8 5 6 6 5 5 5 8 11 13 17 18 18 18 17 17 16 15 15 15 17 18 18 18 18 18 18 19 18 19 19 18 18 16 17 22 27 31 37 44 48 50 49 46 45 44 41 38 34 29 24 21 19 17 15 13 12 12 10 9 9 10 11
2 3 3 1 2 4 4 6 8 8 8 10 8 2 2 4 5 4 6 5 4 6 6 4 4 5 5 5 1 8 14 15 15 16 16 15 14 13 12 10 10 11 12 14 15 17 19 20 19 19 20 20 20 19 18 17 17 16 17 22 28 35 41 45 49 49 47 46 44 40 35 31 28 24 22 20 17 15 14 12 10 8 8 10 11 11
4 3 2 3 2 5 4 6 8 5 6 9 7 1 2 7 6 4 5 3 3 4 2 0 3 4 5 5 2 7 12 12 10 10 11 11 9 7 6 7 8 10 11 12 14 15 18 21 22 22 22 22 22 21 19 17 16 16 17 19 25 32 39 43 46 46 45 43 41 38 35 34 31 27 24 21 18 16 14 10 8 7 9 11 12 12
1 2 1 1 2 5 5 4 2 3 5 9 7 5 7 8 4 2 3 1 2 3 3 3 5 5 4 3 4 5 7 6 6 8 9 7 3 5 7 9 9 11 13 14 16 17 18 20 23 25 26 26 25 24 21 18 17 17 17 18 22 29 35 39 41 41 40 39 38 37 37 36 32 28 26 23 19 16 12 8 8 9 10 12 12 14
4 3 3 2 2 5 6 2 4 3 5 8 6 6 7 5 3 2 1 2 3 2 4 4 3 2 2 1 3 3 4 5 6 6 4 1 3 6 10 12 13 16 18 19 20 21 22 23 24 26 28 29 27 26 25 22 19 18 18 19 21 27 33 37 39 39 39 38 39 38 37 34 30 28 27 24 19 15 11 8 9 9 10 12 14 16
5 5 4 2 3 4 3 3 2 6 7 4 3 3 5 6 6 6 4 3 4 1 4 5 3 2 2 1 1 3 6 8 8 4 2 3 5 10 14 16 17 19 20 21 23 25 26 28 29 30 31 31 30 29 28 26 22 19 19 21 21 25 32 36 38 39 39 40 40 38 35 31 29 29 27 23 18 14 10 8 9 9 11 14 16 18
7 5 4 2 2 2 1 3 5 7 4 3 6 5 2 2 4 3 1 3 3 2 6 6 4 5 5 2 2 5 9 10 6 2 4 2 10 15 18 20 20 21 21 21 23 25 27 30 32 32 32 31 31 30 29 28 25 20 19 20 23 26 30 34 36 37 37 38 37 34 32 30 30 29 26 22 18 12 9 8 9 12 14 16 17 17
8 5 3 3 3 3 4 4 3 5 6 6 5 5 4 2 4 5 3 4 4 1 6 6 4 6 5 4 3 7 12 11 3 3 2 10 16 19 20 21 22 22 22 22 23 25 28 30 31 33 33 33 33 32 29 28 25 20 17 20 24 27 28 30 34 35 34 32 30 29 30 30 29 27 25 21 15 9 8 10 13 15 16 16 16 16
7 7 6 5 4 3 4 4 3 4 6 5 4 5 7 4 4 6 4 2 5 3 4 5 3 5 4 4 8 12 14 11 5 5 10 18 23 24 25 25 24 23 22 22 24 27 29 30 33 35 36 36 35 32 28 27 25 21 19 22 26 30 30 31 35 38 36 33 31 30 31 30 28 26 22 16 11 9 10 13 14 15 15 15 15 14
4 4 6 5 3 2 4 4 4 4 5 4 4 7 12 11 3 4 4 3 6 4 3 2 3 3 3 4 7 9 9 6 5 10 17 23 25 27 28 28 28 26 25 25 26 28 30 32 35 37 37 38 36 32 27 25 25 23 23 24 27 33 36 36 37 39 37 35 33 33 33 30 26 23 19 13 11 11 12 13 13 14 15 14 12 10
6 2 4 4 5 2 4 3 3 2 3 3 4 8 13 14 9 5 1 4 6 6 6 3 4 4 4 4 4 2 1 4 9 17 26 28 29 30 29 30 31 30 30 30 30 31 33 35 37 37 36 36 34 29 25 24 24 25 25 26 29 36 41 39 38 39 37 35 34 33 31 28 26 23 17 12 11 12 13 13 12 11 10 9 8 9
5 3 1 2 3 2 2 3 2 1 3 3 5 9 11 10 7 3 3 5 8 9 6 3 4 6 6 7 7 6 9 14 20 27 32 30 30 31 31 32 33 32 31 33 34 35 37 37 36 35 34 33 30 26 24 24 25 25 25 25 31 40 43 40 39 41 39 37 36 33 30 27 24 20 15 12 12 13 11 9 4 3 5 6 8 10
3 3 3 1 1 2 2 2 2 2 1 3 5 8 7 3 2 3 5 9 12 11 7 5 7 9 10 11 12 14 18 22 25 30 32 31 30 31 32 33 33 33 35 36 37 38 39 37 35 33 30 28 25 23 22 24 25 27 26 26 34 43 43 41 43 42 38 36 36 33 29 26 21 17 15 14 13 9 5 1 5 7 8 8 9 11
2 2 3 2 1 1 0 1 1 1 2 5 4 4 2 2 3 8 11 12 13 11 10 11 12 12 12 13 15 17 21 23 25 28 31 31 31 31 31 31 32 35 38 39 41 42 40 37 35 30 25 24 23 21 21 22 25 27 26 28 36 42 42 43 43 38 34 35 35 32 28 25 20 17 15 12 9 6 6 6 8 8 8 8 10 12
2 1 1 1 1 0 1 2 3 3 4 5 4 3 5 7 10 13 11 10 12 13 13 13 13 12 12 15 17 19 21 23 25 26 27 30 30 29 29 31 33 36 39 42 44 42 36 33 31 26 22 23 23 20 20 22 24 25 26 31 39 43 44 42 38 34 36 38 34 29 26 21 17 14 12 10 9 7 6 6 6 7 8 8 10 12
1 1 2 3 2 3 4 5 6 7 7 5 7 9 11 9 7 8 8 9 10 10 9 11 12 13 15 17 19 21 23 24 25 25 26 28 29 28 30 32 34 37 40 41 37 31 26 26 25 22 21 21 21 21 21 21 22 22 25 33 41 43 43 40 38 38 39 36 30 25 20 16 13 11 10 9 8 7 5 4 4 5 6 7 9 12
2 2 2 3 2 5 6 6 6 9 11 12 13 12 7 3 6 8 9 10 11 10 11 13 16 18 20 21 22 24 26 27 26 26 26 27 28 30 32 34 36 39 38 33 27 23 22 22 21 21 20 17 16 18 18 16 18 23 27 32 37 40 42 44 44 41 35 29 24 19 15 13 13 12 11 10 8 5 3 1 2 4 5 6 8 12
3 3 2 2 2 4 4 4 6 11 18 22 18 9 4 7 12 11 11 13 14 15 16 18 21 22 23 24 25 27 28 28 27 27 27 28 30 32 33 35 39 38 31 25 24 24 22 22 21 19 17 14 12 14 16 12 13 23 31 33 37 41 43 43 40 34 28 25 21 18 16 16 16 14 11 9 6 4 3 1 2 5 5 6 8 12
4 6 5 3 3 3 5 9 15 22 24 20 12 8 11 15 14 13 15 17 17 18 20 21 22 22 24 26 26 27 28 27 26 27 29 29 31 32 34 38 39 32 25 25 26 24 22 20 18 16 15 16 12 11 18 12 8 18 29 33 36 37 35 33 32 29 27 24 21 19 19 18 16 13 10 8 7 5 3 1 5 6 6 6 9 13
8 7 5 4 5 6 7 11 16 18 17 15 13 15 17 16 14 17 20 21 21 23 24 24 23 23 24 25 24 25 27 27 26 27 29 30 31 34 35 35 31 26 24 26 25 22 20 16 15 15 18 17 10 11 16 9 5 15 27 31 32 32 31 32 32 30 26 23 20 19 19 17 14 11 9 9 9 6 1 6 7 7 6 8 11 14
9 6 4 4 5 5 6 10 11 8 8 14 17 18 16 15 17 22 24 24 26 27 26 26 27 27 27 26 25 24 26 27 26 27 28 30 33 34 32 29 26 24 25 24 22 20 16 14 14 18 14 8 10 12 13 12 12 22 33 34 33 35 35 35 33 29 25 21 19 18 18 15 13 12 11 10 7 3 4 8 8 6 7 9 12 14
10 8 7 5 5 7 12 17 14 8 9 17 21 20 19 21 23 25 27 28 29 27 25 25 27 28 28 27 25 23 24 26 25 25 28 31 32 29 27 26 25 26 25 21 17 14 13 13 15 14 7 8 8 9 11 18 24 32 36 35 34 35 34 33 30 28 24 21 18 18 17 14 12 13 11 7 3 3 6 8 8 6 7 9 12 14
Wind_Direction
182 213 265 220 226 228 236 208 183 189 170 170 116 120 236 339 303 280 303 327 1 136 164 191 204 231 236 261 263 249 225 177 189 194 189 186 188 188 186 186 186 187 191 193 194 195 197 200 205 209 207 203 202 204 207 203 196 193 184 172 160 155 156 154 151 147 141 142 145 143 141 122 109 125 138 145 164 208 236 244 246 243 242 246 244 238
140 198 242 227 220 209 219 203 154 133 111 114 95 12 315 2 291 292 316 330 19 105 328 10 64 280 272 274 276 267 246 232 221 211 203 194 191 192 191 190 190 192 193 191 191 193 195 198 202 205 203 200 201 203 205 202 197 195 188 177 168 164 161 159 156 153 150 152 157 157 155 139 129 129 117 108 103 89 87 248 252 247 241 239 238 234
291 237 246 234 216 178 187 177 125 114 96 91 85 47 311 283 284 307 323 328 15 90 276 357 47 290 278 266 267 254 228 242 238 221 216 206 195 195 195 193 192 192 191 189 189 191 193 198 201 202 201 201 204 204 204 201 198 197 190 181 176 173 168 165 165 162 158 160 169 174 170 165 161 152 123 92 82 72 67 66 66 234 239 238 233 226
231 242 245 232 186 145 170 179 84 68 69 98 96 90 282 277 94 308 309 325 357 53 186 72 20 292 286 291 268 232 218 232 243 234 232 226 207 201 199 198 195 190 190 190 190 192 193 197 200 201 201 201 203 204 203 202 200 200 195 188 183 180 176 173 172 170 167 170 179 185 178 184 193 178 153 89 76 72 67 64 61 59 39 251 234 226
231 249 248 184 167 176 179 182 93 79 331 297 165 163 238 265 202 203 267 322 351 347 66 83 12 321 290 288 281 259 231 227 239 239 244 245 230 212 203 200 197 194 194 192 191 192 193 196 201 204 203 202 202 204 206 204 201 203 202 193 187 187 184 179 175 172 173 178 186 189 186 194 202 190 178 101 80 77 72 67 59 54 45 26 245 215
244 253 246 151 190 192 170 196 169 142 238 309 247 202 213 239 234 211 239 31 31 341 302 81 21 302 298 268 258 270 299 279 247 230 239 243 236 220 207 198 197 199 200 198 194 193 195 198 203 204 204 203 203 205 208 207 204 206 209 198 190 192 191 186 177 176 184 194 199 200 200 203 199 189 182 125 84 80 78 74 67 64 56 45 47 88
257 251 214 171 195 180 151 204 212 150 123 302 252 204 203 224 237 219 150 111 103 253 275 73 147 256 306 292 254 262 291 286 272 238 240 241 230 216 209 201 198 198 198 197 194 193 195 199 203 204 205 207 208 208 207 205 206 209 211 205 195 195 197 191 183 183 195 206 210 210 211 213 203 190 182 153 125 88 82 79 74 72 66 61 57 58
288 299 137 134 149 132 123 211 221 141 114 241 242 194 217 253 252 232 151 157 211 235 308 10 125 228 290 266 256 268 282 284 282 262 250 243 225 211 207 205 205 206 202 196 192 193 197 201 205 208 209 210 211 210 205 203 208 211 212 211 202 199 200 197 192 192 199 207 210 209 209 210 206 199 190 175 180 186 97 85 78 74 68 67 66 65
269 236 188 141 122 140 175 216 208 142 133 243 236 199 232 230 208 199 109 136 210 47 314 314 63 231 274 273 282 279 260 282 280 265 251 238 221 208 204 204 206 208 207 202 198 197 199 203 208 211 213 212 211 209 207 206 209 211 212 212 207 203 202 201 200 200 203 208 211 210 211 211 208 202 201 199 206 228 232 221 74 76 73 71 69 72
253 238 223 149 134 194 214 223 183 144 196 241 198 187 278 66 122 121 97 100 43 48 277 274 288 174 272 279 295 302 257 266 267 266 253 234 221 210 207 207 205 204 204 204 203 201 202 204 209 213 214 212 210 209 210 209 210 211 212 211 209 208 207 206 208 207 207 211 212 212 214 216 211 203 206 214 222 228 231 229 223 81 82 84 77 77
266 264 246 172 170 198 199 216 180 169 213 235 138 179 12 17 18 33 71 83 56 344 267 255 196 136 294 279 257 230 241 251 260 277 268 232 218 214 213 212 211 211 210 209 206 203 205 207 209 211 213 212 211 209 209 210 211 212 212 212 211 211 211 213 215 212 211 214 215 216 218 220 216 209 214 222 227 230 231 225 221 230 154 122 98 93
318 302 250 213 204 184 160 227 216 180 193 84 76 121 62 331 359 19 354 44 74 257 268 265 143 123 240 269 258 253 273 278 263 266 267 220 210 216 218 216 214 217 221 221 215 206 204 206 207 208 210 211 210 208 208 211 212 213 214 213 212 211 212 217 221 218 216 218 220 220 221 222 218 218 223 225 230 235 233 225 224 223 207 188 159 137
325 260 266 274 220 182 139 247 295 359 44 84 79 81 94 308 6 11 311 352 202 247 265 245 139 139 234 254 264 270 282 284 263 247 235 202 203 213 217 219 217 219 223 225 223 214 204 202 205 207 208 209 210 209 210 211 213 215 216 214 213 213 214 219 225 222 219 222 225 226 225 223 220 222 227 227 232 240 239 231 230 230 226 221 216 210
325 299 308 352 271 203 146 164 260 322 52 124 142 117 126 137 60 298 273 294 256 265 276 241 167 240 277 265 248 232 258 278 295 289 260 215 209 214 216 219 218 220 223 224 224 220 211 205 205 206 208 209 211 212 212 213 214 215 216 216 216 216 216 222 226 224 223 225 228 231 230 227 224 227 230 230 234 241 243 238 236 237 235 233 237 249
199 302 289 172 252 222 174 183 185 170 141 173 169 134 138 150 148 216 223 218 243 266 291 304 154 206 225 263 249 236 267 283 326 328 315 263 230 228 224 221 213 213 217 218 220 220 216 211 208 208 209 209 211 213 213 213 214 215 215 217 217 217 218 221 224 224 224 227 230 232 232 231 231 234 235 235 238 242 243 240 237 233 232 234 237 246
172 244 253 235 227 145 25 291 169 123 69 258 148 103 149 181 161 189 191 183 186 244 299 310 253 216 205 271 291 323 329 347 22 7 9 35 41 37 2 237 213 214 212 208 209 215 218 214 210 210 209 210 211 213 214 213 213 214 216 217 218 220 222 223 223 222 223 228 231 233 234 233 233 234 235 236 237 239 240 240 238 234 232 231 231 237
159 241 266 287 47 84 40 344 320 154 196 251 132 150 226 166 136 165 262 206 111 137 271 262 257 292 328 306 316 4 13 21 30 19 26 48 54 51 47 46 42 12 228 212 208 209 213 213 212 210 209 210 213 213 214 214 215 216 215 216 218 220 224 225 223 221 221 225 231 235 236 235 234 234 236 237 237 237 238 237 235 235 233 229 229 232
146 249 285 317 50 25 21 19 353 271 114 97 244 223 232 48 83 129 284 351 38 246 272 292 226 277 341 298 327 11 22 23 27 24 31 47 56 54 47 49 49 42 38 356 228 218 214 211 210 211 211 213 215 217 217 216 216 217 216 217 218 220 224 225 223 222 221 222 227 233 237 237 236 235 235 236 237 238 237 235 233 233 234 231 231 232
123 215 293 313 89 309 9 39 359 342 51 85 256 248 162 57 329 299 123 213 256 240 277 309 269 249 218 235 341 24 11 3 15 30 36 36 43 44 40 42 43 41 42 39 24 325 238 221 213 213 216 220 220 220 220 219 217 217 217 217 219 224 227 227 225 223 222 222 225 231 237 238 237 235 233 231 233 236 236 236 237 236 236 234 234 236
91 122 276 299 279 295 9 45 347 323 8 57 19 351 27 152 183 202 193 170 173 205 234 294 306 281 227 217 148 93 3 11 30 40 49 42 38 39 37 36 35 32 33 33 32 30 15 277 233 223 222 223 224 224 221 218 218 218 218 218 219 224 226 227 226 225 223 223 224 229 234 236 235 233 230 226 227 233 235 237 238 238 237 237 239 242
54 98 235 292 322 346 342 144 155 146 17 13 359 345 336 332 288 241 280 144 136 165 190 210 270 267 247 214 154 142 118 61 61 59 58 52 47 42 34 30 27 22 22 23 21 22 24 16 334 252 233 226 223 224 221 219 219 220 220 219 219 222 224 225 227 227 227 224 223 227 231 234 234 230 226 224 225 230 233 235 236 235 237 238 242 246
48 103 181 281 326 311 265 246 163 140 148 158 233 263 276 291 319 1 292 292 101 149 172 176 231 257 252 203 156 149 147 104 80 77 63 48 46 38 28 23 17 11 11 12 10 6 5 7 8 347 270 239 228 223 219 219 220 220 220 221 221 223 223 225 229 231 231 227 224 226 229 233 233 228 224 223 224 228 231 234 234 234 237 240 243 248
153 110 111 230 244 244 267 280 325 58 144 152 170 211 225 17 81 141 253 275 313 256 173 136 219 258 256 195 150 137 137 119 91 82 67 42 36 26 16 10 4 1 1 4 4 359 357 358 357 356 341 280 246 233 225 220 219 219 220 222 223 225 225 226 230 233 233 230 228 227 228 232 231 226 224 224 224 227 229 231 233 234 237 241 244 248
111 79 73 292 282 305 310 312 352 21 46 70 353 10 81 75 83 178 221 221 229 253 199 107 250 269 282 232 132 114 107 103 84 68 51 27 17 10 4 0 357 355 355 358 1 358 3 13 10 354 338 318 283 253 236 228 224 221 222 223 223 226 228 229 231 233 232 231 230 228 228 230 229 224 223 225 225 227 228 229 230 233 237 240 243 248
317 14 88 15 326 334 345 345 348 355 15 31 292 301 78 53 33 30 265 32 262 241 170 152 238 258 269 304 51 82 95 102 80 46 31 20 16 8 3 3 1 359 356 354 357 1 6 17 21 14 353 317 302 289 258 240 231 227 228 229 226 226 229 229 229 230 232 232 231 229 228 228 226 223 223 225 226 226 227 228 228 230 233 237 241 246
161 196 133 120 247 257 288 283 266 281 310 307 261 260 68 41 11 15 28 54 271 271 167 156 239 273 285 327 17 24 23 38 17 12 22 35 35 24 19 20 14 12 10 1 1 9 11 10 17 23 18 354 309 294 286 263 243 233 230 231 230 229 230 231 229 228 230 232 231 230 228 226 224 223 223 224 225 226 226 227 228 228 231 235 240 246
90 57 155 162 188 203 198 214 222 219 280 288 284 290 300 101 96 75 67 176 205 256 305 238 231 277 294 321 19 358 340 336 325 350 20 39 43 38 38 39 32 27 24 13 6 5 4 8 13 13 11 8 357 312 288 277 259 243 234 232 234 235 234 233 233 230 230 233 234 233 230 226 223 222 222 222 222 224 225 226 228 230 234 238 241 249
81 345 258 181 197 207 191 209 229 225 254 262 271 283 286 127 121 157 234 229 178 131 286 255 209 249 283 299 349 319 306 304 319 1 31 42 42 38 34 31 26 22 17 11 7 1 357 360 1 1 359 358 1 358 321 285 269 257 246 240 241 241 238 236 236 234 231 232 235 236 233 229 224 220 221 221 220 222 224 225 229 233 236 240 246 258
120 266 254 198 224 225 196 208 220 216 244 251 247 264 275 253 223 231 232 214 156 154 250 251 217 228 266 302 328 315 317 341 10 33 44 41 33 26 21 16 11 7 2 360 360 356 353 350 345 347 352 348 346 351 350 328 293 272 260 252 248 244 241 239 237 235 230 225 228 232 232 229 226 222 221 220 219 220 222 224 229 234 237 245 257 266
142 256 246 214 245 249 217 224 225 220 239 252 250 248 238 238 240 236 236 216 180 202 238 250 256 249 253 290 323 6 39 48 44 38 34 29 23 16 12 9 4 360 353 349 348 344 340 339 334 331 335 338 337 337 340 342 330 299 274 264 258 250 244 240 236 234 228 222 221 226 230 230 229 228 225 222 221 221 221 225 229 234 242 255 264 271
11 278 248 171 312 296 267 244 238 233 237 249 257 230 171 255 264 247 241 220 202 242 250 251 280 274 269 278 329 62 59 56 47 32 22 16 11 6 7 8 2 355 345 336 334 331 326 325 325 325 326 328 329 329 327 328 329 319 297 279 264 252 244 239 234 230 227 223 220 222 227 230 231 233 229 223 221 221 222 226 231 238 252 262 268 272
350 300 321 50 337 284 262 246 253 271 284 274 269 170 225 270 271 245 241 220 216 255 261 280 278 260 266 286 343 63 60 58 44 21 9 2 358 2 18 21 2 347 341 331 323 321 319 317 319 322 323 322 321 321 319 314 313 314 308 292 272 254 242 236 232 229 227 225 220 218 218 221 227 232 229 223 221 221 222 226 234 248 260 263 267 271
195 242 320 43 279 274 262 250 272 15 331 283 255 191 208 241 251 269 301 287 206 195 159 186 233 228 240 306 7 25 36 50 30 1 351 347 13 53 34 15 358 345 339 332 325 321 318 316 317 318 317 317 315 313 312 305 298 303 304 292 275 259 246 238 232 229 227 222 217 214 212 214 220 224 223 220 219 219 220 225 238 250 258 261 266 271
216 218 233 183 191 263 275 333 32 358 271 254 233 183 177 188 195 205 236 220 212 164 131 162 196 231 266 40 55 355 348 6 357 353 7 58 86 47 12 355 346 341 335 330 327 324 319 314 312 311 311 311 309 307 307 301 292 292 296 291 275 258 247 240 233 227 223 218 214 210 210 213 215 213 213 215 215 214 213 222 237 248 256 261 265 268
243 233 239 192 172 238 269 60 358 270 244 227 255 228 161 139 148 162 170 214 232 190 114 128 153 218 230 78 29 330 336 349 347 345 141 108 18 357 347 342 338 334 330 328 324 320 316 311 308 307 307 305 304 303 302 301 295 287 287 290 278 254 241 233 226 220 215 213 211 209 210 211 206 202 206 210 207 205 209 223 239 247 254 259 262 267
225 219 221 210 184 206 156 149 220 255 264 277 289 281 241 117 119 142 232 286 266 174 137 146 193 213 209 226 296 333 336 336 342 156 168 339 342 335 330 328 326 324 323 322 319 316 313 311 309 309 308 304 301 300 298 298 297 289 280 282 274 252 234 224 219 215 213 212 212 209 205 200 196 196 200 200 198 201 213 226 236 243 250 256 261 266
207 187 192 222 216 201 199 208 247 310 312 285 271 269 263 223 166 162 197 261 275 209 146 152 195 221 223 247 295 337 340 335 330 171 241 324 329 325 320 316 313 312 312 311 311 310 309 309 309 310 308 304 300 298 296 294 292 284 269 263 257 243 230 223 219 217 215 213 210 204 198 195 194 193 192 191 194 203 217 224 233 243 250 256 260 267
215 192 182 203 210 182 203 242 283 295 277 266 269 308 346 20 139 135 110 261 263 246 163 160 203 244 263 317 338 348 351 344 314 275 308 324 325 320 316 312 309 307 306 305 305 304 304 307 308 306 305 303 298 296 294 289 284 276 256 244 239 232 226 224 220 215 210 207 205 199 195 193 192 188 186 188 197 211 222 229 238 247 252 258 265 276
294 200 161 180 209 142 164 223 246 237 245 267 281 315 355 11 39 96 61 295 258 279 314 279 253 267 296 326 336 351 360 342 288 290 310 319 319 316 313 312 310 309 306 304 302 302 303 305 305 305 303 300 297 295 291 281 276 272 256 243 237 229 220 215 212 207 202 198 196 193 190 187 184 183 183 191 206 218 228 235 242 250 256 263 276 296
353 32 120 183 224 176 152 210 242 225 246 284 299 316 342 3 27 59 39 259 260 299 319 294 257 282 302 299 306 338 307 263 277 298 308 312 312 312 312 310 309 308 306 304 302 301 301 302 303 303 301 299 297 295 287 275 272 271 259 247 240 227 216 210 206 201 196 191 187 186 186 183 181 184 185 192 208 218 225 231 240 252 263 279 302 321
356 354 65 190 235 235 191 231 263 261 262 282 302 311 328 0 38 94 201 249 282 292 288 230 241 276 279 271 266 259 266 280 291 300 304 306 307 308 308 306 305 301 299 299 300 300 300 300 302 301 299 299 299 292 282 275 271 267 258 248 235 221 212 208 202 195 190 186 182 183 186 183 179 179 179 187 201 208 214 223 246 308 330 336 335 329
357 332 324 354 300 257 196 211 264 306 281 246 271 297 317 21 98 217 261 297 303 290 264 247 269 280 275 271 270 273 283 293 296 296 297 298 298 299 300 300 299 295 294 296 298 299 300 300 300 299 297 298 297 286 277 276 272 267 260 244 226 215 206 199 193 187 182 180 180 180 180 176 171 169 172 180 186 185 175 99 25 11 355 343 334 324
322 322 303 311 314 282 237 251 217 190 252 249 264 313 1 141 256 283 290 302 304 288 265 268 281 284 281 279 278 280 285 288 287 287 289 291 291 293 294 294 294 294 296 298 299 300 301 299 297 295 294 295 291 277 269 270 266 262 255 236 219 210 200 189 183 180 178 178 176 172 168 164 160 158 159 157 146 121 83 47 22 2 347 337 327 316
318 351 229 276 314 205 248 245 198 214 266 248 221 256 273 270 291 300 293 292 300 291 274 274 282 285 285 283 281 281 281 278 280 284 288 290 292 293 293 294 295 296 298 301 302 301 299 296 293 290 288 287 281 268 260 258 255 251 247 231 214 201 190 184 180 177 172 168 164 159 157 156 151 146 139 126 113 96 68 37 10 347 335 328 320 310
357 27 239 248 248 222 226 232 243 272 279 237 226 263 277 279 298 312 301 296 301 295 280 279 285 290 292 286 280 280 278 278 284 290 292 294 295 295 296 297 297 300 303 303 302 302 300 294 289 288 286 283 274 262 254 248 242 235 226 214 201 187 178 175 172 166 161 156 151 151 153 150 146 140 127 115 108 93 67 34 354 335 325 317 313 310
265 329 289 239 269 297 282 262 272 292 296 295 291 283 275 305 338 337 324 310 303 293 283 284 290 294 296 292 285 282 282 285 291 294 295 296 295 296 297 298 301 304 305 302 301 303 302 295 288 287 285 277 265 254 242 230 223 214 202 192 185 176 170 168 164 158 152 148 148 150 148 142 137 130 121 117 110 94 81 16 329 324 313 307 311 313
284 338 328 241 270 311 295 287 306 302 299 305 305 288 277 327 332 330 323 314 309 302 296 295 297 297 297 295 290 286 286 290 293 294 295 295 294 295 298 301 304 306 303 301 302 302 299 294 288 281 275 273 263 236 212 197 198 196 184 171 167 168 166 162 158 152 146 143 143 143 143 143 139 131 126 128 126 130 163 195 317 318 312 313 316 318
305 341 338 279 254 255 258 280 295 296 297 301 297 285 305 319 320 316 314 312 309 306 303 301 298 294 295 296 294 289 289 291 291 292 294 293 293 296 301 304 305 304 301 301 299 296 296 291 275 265 276 293 288 215 186 172 163 172 168 161 160 161 157 152 147 143 140 140 140 140 143 146 144 135 132 140 151 161 160 21 348 339 335 328 324 327
281 303 296 271 287 289 278 287 297 300 301 300 293 296 305 309 307 307 307 305 301 301 301 298 293 288 289 292 293 291 289 288 290 291 290 290 293 298 302 305 306 303 302 300 293 291 292 276 257 275 295 294 269 201 187 199 209 175 165 159 153 148 145 144 142 139 137 138 139 143 145 142 139 140 144 152 160 162 76 15 6 360 348 335 334 338
271 275 255 258 287 281 265 281 293 296 294 297 303 307 305 304 306 306 303 302 302 300 298 296 292 287 283 283 286 289 290 291 290 287 285 288 295 299 302 304 304 302 300 296 289 284 275 255 267 296 297 250 218 219 219 222 195 161 151 147 145 144 144 145 145 143 140 133 132 141 144 137 136 149 155 149 143 116 28 23 20 5 343 340 346 347
241 248 254 247 248 256 267 280 288 286 279 291 303 308 304 304 306 302 300 301 301 297 296 296 292 289 287 285 283 286 293 295 289 283 287 293 297 298 298 298 300 302 299 292 280 264 248 256 287 295 251 202 229 233 187 166 157 150 147 148 151 151 151 150 150 148 142 131 129 140 145 140 142 152 152 140 109 43 31 30 17 351 341 358 7 3